Content
SEND FEEDBACK

Daily
Averages
Monthly
Summary
United States of America

SILVER SPRINGS, ALASKA


Home > North America > United States > Alaska
Elevation: 1030 feet     Latitude: 61 58N     Longitude: 145 19W

WEATHER
 
SELECT A DAY
Number of Records: 187,552;   Date Range: 1/1/95 - 10/18/14
 
SHARE

PRINT THIS DATA

[ ← Previous Day ]
WEATHER ALMANAC - JANUARY 31, 2013
[ Next Day → ]
[ °C ]   °F
Weather ElementAverageHighLow
Temperature8 °F15.1 °F (5:53 pm)1.4 °F (1:51 am)
Dewpoint5.3 °F10.9 °F (5:53 pm) (7:00 pm)
Humidity88.8 %100 % (1:51 am)84 % (7:53 am)
Barometer29.92 in30.09 in (11:53 pm)29.75 in (1:34 am)

Weather ElementAverage
Weather ElementTotal
Precipitation0.07 in
Heating Degree Days56.8 (Base 65)
Averaged from 37 records on January 31, 2013
WEATHER CONDITIONS BREAKOUT
WIND DIRECTION BREAKOUT
WEATHER BY HOUR - JANUARY 31, 2013
[ °C ]   °F
Local TimeTemperatureDewpointHumidityBarometerVisibilityWind DirectionWind SpeedGust SpeedPrecipitationEventsConditions
1:34 AM1.9 °F0.0 °F91 %29.75 in3.0 miCalmOvercast
1:44 AM1.9 °F1.0 °F96 %29.75 in2.0 miCalmOvercast
1:51 AM1.4 °F1.4 °F100 %29.75 in1.5 miCalmOvercast
1:53 AM1.9 °F1.0 °F96 %29.93 in1.5 miCalmOvercast
2:09 AM3.0 °F1.9 °F95 %29.75 in0.8 miCalmMist
2:40 AM3.0 °F1.0 °F91 %29.75 in0.5 miCalmFogLight Freezing Fog
3:17 AM3.0 °F1.9 °F95 %29.75 in0.8 miCalmMist
3:53 AM3.0 °F1.9 °F95 %29.93 in0.5 miCalmFogLight Freezing Fog
4:53 AM3.0 °F0.0 °F87 %29.93 in0.8 miCalmMist
5:35 AM3.0 °F1.0 °F91 %29.75 in0.8 miCalmMist
5:53 AM3.9 °F1.0 °F88 %29.93 in0.8 miCalmMist
6:06 AM3.9 °F1.0 °F88 %29.75 in5.0 miCalmOvercast
6:53 AM3.9 °F1.0 °F88 %29.93 in9.0 miCalm0.00 inOvercast
7:53 AM5.0 °F1.0 °F84 %29.93 in5.0 miCalm0.01 inSnowLight Snow
8:53 AM6.1 °F3.0 °F87 %29.94 in5.0 miCalm0.00 inSnowLight Snow
9:16 AM7.0 °F3.0 °F84 %29.77 in5.0 miCalm0.00 inSnowLight Snow
9:53 AM7.0 °F3.0 °F84 %29.94 in5.0 miCalm0.00 inSnowLight Snow
10:53 AM7.0 °F3.9 °F87 %29.96 in1.0 miCalm0.01 inSnowLight Snow
11:26 AM8.1 °F5.0 °F87 %29.80 in3.0 miCalm0.01 inSnowLight Snow
11:41 AM8.1 °F5.0 °F87 %29.81 in1.5 miCalm0.01 inSnowLight Snow
11:53 AM8.1 °F5.0 °F87 %29.98 in1.0 miCalm0.02 inSnowLight Snow
12:53 PM10.0 °F7.0 °F87 %29.99 in2.0 miCalm0.01 inSnowLight Snow
1:14 PM10.9 °F7.0 °F84 %29.83 in7.0 miCalm0.00 inSnowLight Snow
1:53 PM12.0 °F9.0 °F88 %30.00 in10.0 miCalm0.00 inOvercast
2:53 PM12.9 °F9.0 °F84 %30.01 in10.0 miCalm0.00 inSnowLight Snow
3:53 PM12.9 °F10.0 °F88 %30.02 in10.0 miCalm0.00 inOvercast
4:53 PM12.9 °F10.0 °F88 %30.03 in10.0 miCalm0.00 inMostly Cloudy
5:53 PM15.1 °F10.9 °F84 %30.03 in10.0 miCalmMostly Cloudy
6:53 PM14.0 °F10.9 °F88 %30.04 in10.0 miCalmOvercast
7:53 PM14.0 °F10.9 °F88 %30.05 in10.0 miCalmOvercast
8:53 PM12.9 °F10.0 °F88 %30.07 in10.0 miCalmMostly Cloudy
9:27 PM12.0 °F9.0 °F88 %29.92 in10.0 miCalmMostly Cloudy
9:36 PM12.9 °F10.0 °F88 %29.92 in10.0 miCalmOvercast
9:53 PM12.0 °F9.0 °F88 %30.07 in10.0 miCalmOvercast
10:36 PM12.9 °F10.0 °F88 %29.93 in10.0 miCalmOvercast
10:53 PM12.9 °F10.0 °F88 %30.08 in10.0 miCalmOvercast
11:53 PM12.9 °F10.9 °F92 %30.09 in10.0 miCalmOvercast
Hourly data recorded from PAGK, located miles away from Silver Springs, Alaska







STORIES FROM OUR PARTNERS